Lid_Strength_Index
5 5 5 5 5 5 6 8 11 6 5 9 9 10 10 9 9 8 8 8 9 10 9 10 11 11 10 8 7 10 9 10 12 11 10 10 10 10 10 12 13 12 12 12
5 4 4 4 4 4 6 9 9 5 5 11 11 10 10 9 9 9 9 9 8 8 9 11 9 9 8 8 8 10 8 11 13 11 11 10 11 10 10 10 11 13 14 12
4 4 5 5 4 4 5 8 11 8 7 8 10 11 12 12 9 10 9 10 8 10 10 8 10 10 8 8 8 8 7 10 11 13 12 11 12 11 11 11 13 12 12 11
5 5 5 5 4 4 5 9 11 10 12 11 11 11 11 12 13 11 10 11 11 12 12 11 11 10 10 8 8 8 9 12 10 10 9 10 10 11 10 12 11 13 11 11
5 5 5 5 4 4 7 10 10 9 11 11 11 12 13 13 13 12 12 13 13 12 13 13 14 12 11 11 10 11 10 12 11 12 10 10 11 10 10 10 10 10 10 11
5 5 4 4 4 5 7 7 7 9 12 12 13 12 13 13 12 11 11 12 12 13 12 11 11 11 11 11 12 12 12 13 13 15 11 11 14 11 10 10 9 10 11 10
5 5 5 5 5 5 6 7 7 10 13 12 13 13 12 13 12 13 11 11 12 11 8 9 10 10 11 11 12 12 14 13 13 15 13 18 12 9 9 10 11 10 10 11
5 5 5 4 5 5 5 5 7 9 12 11 12 12 12 11 11 12 12 11 9 8 10 12 14 13 13 12 11 11 11 13 16 17 16 14 12 11 10 11 13 11 12 11
5 5 4 5 4 4 4 4 4 7 11 12 10 11 11 12 12 12 11 9 8 9 11 13 17 17 15 16 14 9 9 10 14 15 17 18 12 10 9 8 14 11 12 12
5 5 4 4 4 4 4 5 4 7 10 9 9 11 11 10 11 12 11 11 11 9 12 15 16 16 13 17 16 15 13 13 15 15 16 14 10 10 9 14 13 11 12 12
5 5 5 4 4 4 4 5 3 6 9 9 8 8 10 10 11 13 11 11 11 11 14 14 14 14 13 14 13 14 15 15 15 14 16 17 9 11 13 11 10 11 11 11
4 4 4 4 4 4 4 6 4 3 7 8 6 6 6 7 7 9 9 10 10 10 11 11 11 13 12 13 16 11 15 12 14 14 14 10 8 10 9 9 10 10 10 10
3 3 3 4 4 4 4 5 5 6 8 8 8 8 5 4 5 5 9 8 8 8 7 9 11 13 11 14 14 13 11 9 11 12 10 10 9 8 8 8 9 9 9 8
3 3 3 3 3 3 3 4 3 5 7 11 9 5 6 4 4 4 4 5 5 5 5 8 10 11 8 11 11 12 10 8 9 11 10 9 8 7 7 7 7 7 7 7
3 3 3 3 2 2 2 2 2 2 6 10 9 5 4 3 3 4 4 4 5 6 8 8 10 7 8 8 9 10 6 7 9 10 7 8 8 6 5 6 6 5 6 7
1 1 1 1 1 1 2 5 1 1 2 7 11 4 4 2 2 3 3 3 4 4 7 7 6 4 6 9 10 6 5 4 4 6 4 4 4 4 3 4 4 4 4 4
1 0 0 0 1 0 3 4 1 -0 -0 5 9 7 3 3 2 2 3 3 4 5 6 7 6 6 6 8 11 6 5 4 4 3 4 5 4 5 3 3 3 2 3 3
-0 -0 -0 -1 -1 -0 1 -0 -1 -2 1 3 8 8 6 2 5 6 3 5 5 5 6 5 7 6 7 10 6 5 4 4 4 4 3 4 3 3 4 4 4 5 6 5
-1 -1 -1 -1 0 2 1 -2 -2 -2 2 7 8 9 9 3 4 4 5 5 9 4 8 7 6 8 11 7 6 5 5 5 5 4 4 4 5 5 5 6 7 8 8 8
-2 -1 2 6 2 -1 -2 1 4 4 5 5 8 5 8 5 5 7 7 6 8 10 8 5 9 9 5 5 4 4 4 4 4 6 7 6 7 7 8 9 9 9 10 10
0 4 6 1 -0 1 4 7 7 7 8 6 6 5 7 3 7 8 6 8 8 12 9 9 10 9 6 4 4 3 3 4 4 5 5 6 8 9 9 10 10 10 10 11
1 1 0 1 4 6 8 9 8 8 9 6 7 6 5 5 4 7 7 9 8 12 7 10 11 7 5 4 4 4 4 4 5 5 6 7 8 9 9 10 10 10 10 11
0 3 6 6 7 10 11 12 10 9 6 5 6 7 5 5 5 7 8 11 11 6 11 11 9 6 5 4 4 4 4 5 6 6 7 8 8 9 9 10 10 10 11 11
6 7 10 9 10 9 8 8 7 5 5 5 5 7 7 6 8 8 11 9 9 12 13 11 7 5 5 4 4 4 5 6 6 7 8 9 9 9 9 9 9 10 11 11
6 7 10 9 6 5 5 4 5 5 4 5 6 6 6 8 9 8 9 11 12 11 11 8 5 5 4 4 4 5 6 7 7 8 9 9 9 9 10 9 9 10 10 11
6 6 8 7 7 7 7 6 6 4 4 4 5 8 9 10 9 11 11 12 12 9 7 5 4 4 4 4 4 5 6 7 8 8 9 9 9 9 9 9 10 10 11 11
7 7 5 6 6 6 6 6 6 3 5 8 8 10 10 8 11 11 9 10 8 6 5 4 4 4 4 5 5 6 7 8 9 9 9 9 10 10 10 11 10 10 10 10